This is the latest recevied weather packets stored in our database for station/object KP4CRN. If no packets are shown the sender has not sent any weather packets the latest 10 day(s).
| Time | Temp. | Humidity | Pressure | Rain* | Wind** | Luminosity | Snow |
|---|---|---|---|---|---|---|---|
| 1777642711 | 30° C | 78% | 1015.9 hPa | 0 mm | - | 534 W/m² | - |
| 1777642409 | 29.44° C | 79% | 1015.7 hPa | 0 mm | - | 599 W/m² | - |
| 1777642105 | 28.89° C | 80% | 1015.6 hPa | 0 mm | - | 563 W/m² | - |
| 1777641801 | 28.89° C | 79% | 1015.7 hPa | 0 mm | - | 473 W/m² | - |
| 1777641496 | 28.89° C | 79% | 1015.4 hPa | 0 mm | - | 403 W/m² | - |
| 1777641191 | 28.89° C | 80% | 1015.6 hPa | 0 mm | - | 435 W/m² | - |
| 1777640888 | 28.89° C | 81% | 1015.4 hPa | 0 mm | - | 515 W/m² | - |
| 1777640585 | 28.89° C | 82% | 1015.4 hPa | 0 mm | - | 370 W/m² | - |
| 1777640282 | 28.33° C | 82% | 1015.5 hPa | 0 mm | - | 399 W/m² | - |
| 1777639978 | 28.33° C | 84% | 1015.6 hPa | 0 mm | - | 354 W/m² | - |
| 1777639675 | 28.33° C | 83% | 1015.5 hPa | 0 mm | - | 377 W/m² | - |
| 1777639374 | 27.78° C | 84% | 1015.4 hPa | 0 mm | - | 433 W/m² | - |
| 1777639067 | 28.33° C | 85% | 1015.4 hPa | 0 mm | - | 389 W/m² | - |
| 1777638765 | 28.33° C | 85% | 1015.2 hPa | 0 mm | - | 410 W/m² | - |
| 1777638460 | 27.78° C | 86% | 1015 hPa | 0 mm | - | 367 W/m² | - |
| 1777638158 | 27.78° C | 87% | 1015.1 hPa | 0 mm | - | 338 W/m² | - |
| 1777637853 | 27.78° C | 88% | 1015.2 hPa | 0 mm | - | 321 W/m² | - |
| 1777637550 | 27.22° C | 88% | 1015 hPa | 0 mm | - | 305 W/m² | - |
| 1777637247 | 27.22° C | 89% | 1014.9 hPa | 0 mm | - | 291 W/m² | - |
| 1777636944 | 27.22° C | 90% | 1014.9 hPa | 0 mm | - | 280 W/m² | - |
| 1777636640 | 26.67° C | 92% | 1014.8 hPa | 0 mm | - | 164 W/m² | - |
| 1777636336 | 26.11° C | 93% | 1014.9 hPa | 0 mm | - | 256 W/m² | - |
| 1777636036 | 26.11° C | 93% | 1014.9 hPa | 0 mm | - | 70 W/m² | - |
| 1777635732 | 25.56° C | 94% | 1014.5 hPa | 0 mm | - | 197 W/m² | - |
| 1777635429 | 25.56° C | 94% | 1014.5 hPa | 0 mm | - | 91 W/m² | - |
* Rain latest hour (hover to see other rain measurements)
** Current wind speed in m/s (hover to see current wind gust speed)